Overview Statistics Trail Chart Weather Telemetry Raw packets
 

This is the latest recevied weather packets stored in our database for station/object W5DNT. If no packets are shown the sender has not sent any weather packets the latest 10 day(s).

<< 16 17 18 19 20 21 22 >>
Time Temp. Humidity Pressure Rain* Wind** Luminosity Snow
1788251414 25° C 62% 1014.8 hPa 0 mm - - -
1788250512 25° C 62% 1014.7 hPa 0 mm - - -
1788249611 25° C 62% 1014.6 hPa 0 mm - - -
1788248709 25° C 60% 1014.6 hPa 0 mm - - -
1788247808 25° C 59% 1014.5 hPa 0 mm - - -
1788246908 25.56° C 58% 1014.6 hPa 0 mm - - -
1788246006 25.56° C 59% 1014.5 hPa 0 mm - - -
1788245106 25° C 58% 1014.4 hPa 0 mm - - -
1788244223 25° C 57% 1014.3 hPa 0 mm - - -
1788243303 25° C 55% 1014.3 hPa 0 mm - - -
1788242461 25.56° C 55% 1014.2 hPa 0 mm - - -
1788241558 25.56° C 54% 1014.1 hPa 0 mm - - -
1788240679 26.11° C 53% 1013.9 hPa 0 mm - - -
1788239756 26.11° C 53% 1013.8 hPa 0 mm - - -
1788238850 26.11° C 52% 1013.7 hPa 0 mm - - -
1788237954 26.67° C 51% 1013.7 hPa 0 mm - - -
1788237048 27.22° C 50% 1013.7 hPa 0 mm - - -
1788236173 27.22° C 49% 1013.7 hPa 0 mm - - -
1788235271 27.78° C 49% 1013.7 hPa 0 mm - - -
1788234350 28.33° C 48% 1013.6 hPa 0 mm - - -
1788233446 28.33° C 46% 1013.6 hPa 0 mm - - -
1788232545 28.89° C 45% 1013.5 hPa 0 mm - - -
1788231645 29.44° C 45% 1013.3 hPa 0 mm - - -
1788230805 30° C 45% 1013 hPa 0 mm - - -
1788229843 30° C 46% 1012.7 hPa 0 mm - - -

* Rain latest hour (hover to see other rain measurements)
** Current wind speed in m/s (hover to see current wind gust speed)